Terminal Aerodrome Forecast
Issued by NWS Greer, SC

Home | Current Version | Previous Version | Text Only | Print | Product List | Glossary On
Versions: 1 2 3 4 5 6 7 8 9 10 11 12 13 14 15 16 17 18 19 20 21 22 23 24 25 26 27 28 29 30 31 32 33 34 35 36 37 38 39 40 41 42 43 44
000
FTUS42 KGSP 282340
TAFCLT
TAF
KCLT 282340Z 2900/2924 23003KT P6SM FEW012 BKN100
     FM290200 26004KT P6SM SCT008 BKN090
     FM290500 35003KT 5SM -RA BR OVC008
     FM290700 03005KT 2SM -RA BR OVC003
     FM291800 04005KT 4SM BR OVC007=

USA.gov is the U.S. government's official web portal to all federal, state and local government web resources and services.